,,,PA_Meas_PMT16A,,PR_Meas_QMR101_102,,RH_Meas_QMH101,,SR_Meas_QMS101,,TA_Meas_QMH101,,GenWind,,GenWind,
date,time,status,PA,status,PR,status,RH,status,SR,status,TA,status,DirAvg,status,SpdAvg,
2009-06-10, 00:00:05,VALID,1006.56,VALID,0,VALID,88.2509,VALID,0.100563,VALID,24.8892,VALID,348,VALID,0.442969,
2009-06-10, 00:01:05,VALID,1006.51,VALID,0,VALID,88.3577,VALID,0,VALID,24.9087,VALID,347,VALID,0.656641,
2009-06-10, 00:02:05,VALID,1006.51,VALID,0,VALID,88.2661,VALID,0.100563,VALID,24.969,VALID,351,VALID,0.70625,
2009-06-10, 00:03:05,VALID,1006.51,VALID,0,VALID,88.1822,VALID,0,VALID,24.9885,VALID,355,VALID,0.869531,
2009-06-10, 00:04:05,VALID,1006.49,VALID,0,VALID,88.2585,VALID,0.100563,VALID,24.9866,VALID,352,VALID,1.18359,
2009-06-10, 00:05:05,VALID,1006.47,VALID,0,VALID,88.1746,VALID,0.100563,VALID,25.006,VALID,357,VALID,0.830078,
2009-06-10, 00:06:05,VALID,1006.45,VALID,0,VALID,88.1746,VALID,0,VALID,25.0255,VALID,356,VALID,0.825781,
2009-06-10, 00:07:05,VALID,1006.42,VALID,0,VALID,88.2433,VALID,0.100563,VALID,25.0255,VALID,4,VALID,1.27305,
2009-06-10, 00:08:05,VALID,1006.41,VALID,0,VALID,88.1899,VALID,0,VALID,25.045,VALID,344,VALID,0.276563,
2009-06-10, 00:09:05,VALID,1006.39,VALID,0,VALID,88.1822,VALID,0.100563,VALID,25.0255,VALID,351,VALID,0.644141,
2009-06-10, 00:10:05,VALID,1006.37,VALID,0,VALID,88.2967,VALID,0,VALID,25.045,VALID,319,VALID,0.878516,
2009-06-10, 00:11:05,VALID,1006.34,VALID,0,VALID,88.228,VALID,0,VALID,25.0644,VALID,3,VALID,0.689062,
2009-06-10, 00:12:05,VALID,1006.32,VALID,0,VALID,88.2814,VALID,0.100563,VALID,25.0839,VALID,349,VALID,1.17617,
2009-06-10, 00:13:05,VALID,1006.29,VALID,0,VALID,88.2356,VALID,0,VALID,25.1229,VALID,352,VALID,1.24531,
2009-06-10, 00:14:05,VALID,1006.28,VALID,0,VALID,88.0678,VALID,0,VALID,25.1832,VALID,343,VALID,0.843359,
2009-06-10, 00:15:05,VALID,1006.28,VALID,0,VALID,88.0449,VALID,0.100563,VALID,25.1813,VALID,349,VALID,1.24609,
2009-06-10, 00:16:05,VALID,1006.27,VALID,0,VALID,88.022,VALID,0,VALID,25.1813,VALID,346,VALID,1.38906,
2009-06-10, 00:17:05,VALID,1006.31,VALID,0,VALID,87.9076,VALID,0,VALID,25.2202,VALID,324,VALID,1.54297,
2009-06-10, 00:18:05,VALID,1006.27,VALID,0,VALID,87.7779,VALID,0,VALID,25.2611,VALID,343,VALID,2.46055,
2009-06-10, 00:19:05,VALID,1006.3,VALID,0,VALID,87.6253,VALID,0,VALID,25.2806,VALID,360,VALID,0.626172,
2009-06-10, 00:20:05,VALID,1006.32,VALID,0,VALID,87.5872,VALID,0,VALID,25.2786,VALID,324,VALID,1.20898,
2009-06-10, 00:21:05,VALID,1006.36,VALID,0,VALID,87.5261,VALID,0,VALID,25.2786,VALID,357,VALID,1.40547,
2009-06-10, 00:22:05,VALID,1006.32,VALID,0,VALID,87.5338,VALID,0,VALID,25.2806,VALID,355,VALID,1.14258,
2009-06-10, 00:23:05,VALID,1006.31,VALID,0,VALID,87.6787,VALID,0,VALID,25.2397,VALID,7,VALID,1.13359,
2009-06-10, 00:24:05,VALID,1006.29,VALID,0,VALID,87.7626,VALID,0.100563,VALID,25.2221,VALID,358,VALID,0.863672,
2009-06-10, 00:25:05,VALID,1006.34,VALID,0,VALID,87.8466,VALID,0,VALID,25.2027,VALID,344,VALID,0.972656,
2009-06-10, 00:26:05,VALID,1006.3,VALID,0,VALID,87.9839,VALID,0.100563,VALID,25.1618,VALID,354,VALID,1.42813,
2009-06-10, 00:27:05,VALID,1006.28,VALID,0,VALID,88.0449,VALID,0,VALID,25.1423,VALID,352,VALID,0.449609,
2009-06-10, 00:28:05,VALID,1006.26,VALID,0,VALID,88.1975,VALID,0.100563,VALID,25.1034,VALID,350,VALID,1.05313,
2009-06-10, 00:29:05,VALID,1006.24,VALID,0,VALID,88.4111,VALID,0,VALID,25.0858,VALID,346,VALID,1.1793,
2009-06-10, 00:30:05,VALID,1006.21,VALID,0,VALID,88.5408,VALID,0,VALID,25.0255,VALID,343,VALID,0.991016,
2009-06-10, 00:31:05,VALID,1006.16,VALID,0,VALID,88.7391,VALID,0,VALID,25.0274,VALID,350,VALID,1.06953,
2009-06-10, 00:32:05,VALID,1006.17,VALID,0,VALID,88.8307,VALID,0.100563,VALID,24.9866,VALID,344,VALID,0.497656,
2009-06-10, 00:33:05,VALID,1006.13,VALID,0,VALID,89.0367,VALID,0.100563,VALID,24.9476,VALID,351,VALID,0.921484,
2009-06-10, 00:34:05,VALID,1006.14,VALID,0,VALID,89.2884,VALID,0.100563,VALID,24.9282,VALID,351,VALID,1.07539,
2009-06-10, 00:35:05,VALID,1006.13,VALID,0,VALID,89.502,VALID,0,VALID,24.9282,VALID,347,VALID,1.06992,
2009-06-10, 00:36:05,VALID,1006.12,VALID,0,VALID,89.5402,VALID,0,VALID,24.93,VALID,337,VALID,0.544531,
2009-06-10, 00:37:05,VALID,1006.11,VALID,0,VALID,89.6393,VALID,0,VALID,24.9087,VALID,2,VALID,0.480859,
2009-06-10, 00:38:05,VALID,1006.11,VALID,0,VALID,89.7919,VALID,0.100563,VALID,24.9087,VALID,352,VALID,0.888672,
2009-06-10, 00:39:05,VALID,1006.11,VALID,0,VALID,89.7843,VALID,0,VALID,24.93,VALID,282,VALID,0.389453,
2009-06-10, 00:40:05,VALID,1006.04,VALID,0,VALID,89.8301,VALID,0.100563,VALID,24.9087,VALID,336,VALID,1.08789,
2009-06-10, 00:41:05,VALID,1006.05,VALID,0,VALID,89.8148,VALID,0.100563,VALID,24.8892,VALID,342,VALID,1.06328,
2009-06-10, 00:42:05,VALID,1006.04,VALID,0,VALID,89.853,VALID,0,VALID,24.9106,VALID,318,VALID,0.466797,
2009-06-10, 00:43:05,VALID,1006.02,VALID,0,VALID,89.9369,VALID,0.100563,VALID,24.8503,VALID,349,VALID,1.42852,
2009-06-10, 00:44:05,VALID,1006.02,VALID,0,VALID,89.914,VALID,0,VALID,24.8911,VALID,357,VALID,0.703125,
2009-06-10, 00:45:05,VALID,1005.99,VALID,0,VALID,89.9064,VALID,0,VALID,24.8503,VALID,348,VALID,1.09258,
2009-06-10, 00:46:05,VALID,1005.98,VALID,0,VALID,89.9292,VALID,0.100563,VALID,24.8503,VALID,354,VALID,1.16289,
2009-06-10, 00:47:05,VALID,1005.99,VALID,0,VALID,90.0284,VALID,0.100563,VALID,24.8522,VALID,351,VALID,1.30195,
2009-06-10, 00:48:05,VALID,1005.96,VALID,0,VALID,90.1123,VALID,0,VALID,24.8327,VALID,333,VALID,1.05156,
2009-06-10, 00:49:05,VALID,1005.95,VALID,0,VALID,90.0971,VALID,0,VALID,24.8113,VALID,14,VALID,0.683594,
2009-06-10, 00:50:05,VALID,1005.95,VALID,0,VALID,90.0971,VALID,0.100563,VALID,24.7919,VALID,352,VALID,1.26445,
2009-06-10, 00:51:05,VALID,1005.93,VALID,0,VALID,90.181,VALID,0.100563,VALID,24.7919,VALID,352,VALID,0.791016,
2009-06-10, 00:52:05,VALID,1005.9,VALID,0,VALID,90.2725,VALID,0,VALID,24.7548,VALID,339,VALID,0.915625,
2009-06-10, 00:53:05,VALID,1005.88,VALID,0,VALID,90.3259,VALID,0.100563,VALID,24.7335,VALID,355,VALID,0.734766,
2009-06-10, 00:54:05,VALID,1005.88,VALID,0,VALID,90.4099,VALID,0,VALID,24.7335,VALID,356,VALID,1.01055,
2009-06-10, 00:55:05,VALID,1005.9,VALID,0,VALID,90.5472,VALID,0,VALID,24.7529,VALID,342,VALID,1.59023,
2009-06-10, 00:56:05,VALID,1005.91,VALID,0,VALID,90.5167,VALID,0,VALID,24.7335,VALID,338,VALID,0.883203,
2009-06-10, 00:57:05,VALID,1005.93,VALID,0,VALID,90.5472,VALID,0,VALID,24.7353,VALID,7,VALID,1.19492,
2009-06-10, 00:58:05,VALID,1005.91,VALID,0,VALID,90.5396,VALID,0,VALID,24.714,VALID,316,VALID,0.597656,
2009-06-10, 00:59:05,VALID,1005.94,VALID,0,VALID,90.6769,VALID,0.100563,VALID,24.7353,VALID,339,VALID,0.830469,
2009-06-10, 01:00:05,VALID,1005.88,VALID,0,VALID,90.6692,VALID,0,VALID,24.7353,VALID,346,VALID,0.862109,
2009-06-10, 01:01:05,VALID,1005.87,VALID,0,VALID,90.715,VALID,0,VALID,24.7335,VALID,352,VALID,0.805078,
2009-06-10, 01:02:05,VALID,1005.82,VALID,0,VALID,90.7532,VALID,0,VALID,24.7353,VALID,348,VALID,1.03867,
2009-06-10, 01:03:05,VALID,1005.79,VALID,0,VALID,90.86,VALID,0,VALID,24.7353,VALID,350,VALID,1.47383,
2009-06-10, 01:04:05,VALID,1005.78,VALID,0,VALID,90.8905,VALID,0,VALID,24.7335,VALID,350,VALID,1.11211,
2009-06-10, 01:05:05,VALID,1005.79,VALID,0,VALID,90.8905,VALID,0,VALID,24.7335,VALID,349,VALID,0.456641,
2009-06-10, 01:06:05,VALID,1005.8,VALID,0,VALID,90.921,VALID,0,VALID,24.7335,VALID,1,VALID,0.708594,
2009-06-10, 01:07:05,VALID,1005.79,VALID,0,VALID,91.0354,VALID,0.100563,VALID,24.7335,VALID,348,VALID,1.04258,
2009-06-10, 01:08:05,VALID,1005.76,VALID,0,VALID,90.982,VALID,0,VALID,24.714,VALID,1,VALID,0.630469,
2009-06-10, 01:09:05,VALID,1005.73,VALID,0,VALID,91.0431,VALID,0.100563,VALID,24.714,VALID,320,VALID,0.919141,
2009-06-10, 01:10:05,VALID,1005.71,VALID,0,VALID,91.0736,VALID,0.100563,VALID,24.7353,VALID,337,VALID,0.635156,
2009-06-10, 01:11:05,VALID,1005.72,VALID,0,VALID,91.1575,VALID,0.100563,VALID,24.6945,VALID,346,VALID,0.938281,
2009-06-10, 01:12:05,VALID,1005.71,VALID,0,VALID,91.1193,VALID,0,VALID,24.675,VALID,342,VALID,0.492578,
2009-06-10, 01:13:05,VALID,1005.66,VALID,0,VALID,91.2948,VALID,0,VALID,24.6769,VALID,350,VALID,1.76172,
2009-06-10, 01:14:05,VALID,1005.68,VALID,0,VALID,91.2567,VALID,0,VALID,24.6769,VALID,295,VALID,0.689453,
2009-06-10, 01:15:05,VALID,1005.71,VALID,0,VALID,91.2262,VALID,0,VALID,24.6556,VALID,347,VALID,0.676953,
2009-06-10, 01:16:05,VALID,1005.68,VALID,0,VALID,91.2109,VALID,0,VALID,24.6574,VALID,338,VALID,0.36875,
2009-06-10, 01:17:05,VALID,1005.69,VALID,0,VALID,91.2872,VALID,0,VALID,24.6574,VALID,350,VALID,0.997656,
2009-06-10, 01:18:05,VALID,1005.69,VALID,0,VALID,91.3711,VALID,0,VALID,24.638,VALID,353,VALID,1.05391,
2009-06-10, 01:19:05,VALID,1005.66,VALID,0,VALID,91.4474,VALID,0,VALID,24.6574,VALID,350,VALID,1.33047,
2009-06-10, 01:20:05,VALID,1005.66,VALID,0,VALID,91.3558,VALID,0,VALID,24.6574,VALID,1,VALID,0.828125,
2009-06-10, 01:21:05,VALID,1005.67,VALID,0,VALID,91.3558,VALID,0,VALID,24.6361,VALID,340,VALID,0.869922,
2009-06-10, 01:22:05,VALID,1005.65,VALID,0,VALID,91.3864,VALID,0,VALID,24.6166,VALID,341,VALID,0.546094,
2009-06-10, 01:23:05,VALID,1005.64,VALID,0,VALID,91.4703,VALID,0.100563,VALID,24.5972,VALID,352,VALID,0.604688,
2009-06-10, 01:24:05,VALID,1005.65,VALID,0,VALID,91.4626,VALID,0,VALID,24.5777,VALID,354,VALID,0.102734,
2009-06-10, 01:25:05,VALID,1005.59,VALID,0,VALID,91.4932,VALID,0,VALID,24.5601,VALID,353,VALID,0.441016,
2009-06-10, 01:26:05,VALID,1005.62,VALID,0,VALID,91.6152,VALID,0,VALID,24.5582,VALID,349,VALID,0.573438,
2009-06-10, 01:27:05,VALID,1005.59,VALID,0,VALID,91.7144,VALID,0,VALID,24.5406,VALID,358,VALID,0.614062,
2009-06-10, 01:28:04,VALID,1005.6,VALID,0,VALID,91.9128,VALID,0,VALID,24.5601,VALID,351,VALID,1.04727,
2009-06-10, 01:29:04,VALID,1005.6,VALID,0,VALID,91.8746,VALID,0,VALID,24.6009,VALID,304,VALID,0.902344,
2009-06-10, 01:30:04,VALID,1005.61,VALID,0,VALID,91.8136,VALID,0,VALID,24.6009,VALID,325,VALID,0.344922,
2009-06-10, 01:31:04,VALID,1005.6,VALID,0,VALID,91.7754,VALID,0,VALID,24.5814,VALID,330,VALID,0.632031,
2009-06-10, 01:32:04,VALID,1005.57,VALID,0,VALID,91.8822,VALID,0,VALID,24.599,VALID,342,VALID,1.06172,
2009-06-10, 01:33:04,VALID,1005.56,VALID,0,VALID,91.7297,VALID,0,VALID,24.6398,VALID,338,VALID,0.205859,
2009-06-10, 01:34:04,VALID,1005.6,VALID,0,VALID,91.6991,VALID,0,VALID,24.6593,VALID,356,VALID,0.628906,
2009-06-10, 01:35:04,VALID,1005.57,VALID,0,VALID,91.5695,VALID,0,VALID,24.6612,VALID,342,VALID,0.805469,
2009-06-10, 01:36:04,VALID,1005.56,VALID,0,VALID,91.5771,VALID,0,VALID,24.638,VALID,334,VALID,0.194141,
2009-06-10, 01:37:04,VALID,1005.54,VALID,0,VALID,91.5237,VALID,0,VALID,24.6574,VALID,308,VALID,0.867188,
2009-06-10, 01:38:04,VALID,1005.53,VALID,0,VALID,91.455,VALID,0,VALID,24.638,VALID,322,VALID,0.291406,
2009-06-10, 01:39:04,VALID,1005.52,VALID,0,VALID,91.3864,VALID,0,VALID,24.6593,VALID,358,VALID,0.785937,
2009-06-10, 01:40:04,VALID,1005.51,VALID,0,VALID,91.2948,VALID,0,VALID,24.6788,VALID,331,VALID,0.354297,
2009-06-10, 01:41:04,VALID,1005.51,VALID,0,VALID,91.2338,VALID,0,VALID,24.6574,VALID,348,VALID,0.823438,
2009-06-10, 01:42:04,VALID,1005.5,VALID,0,VALID,91.2185,VALID,0,VALID,24.6574,VALID,347,VALID,0.923828,
2009-06-10, 01:43:04,VALID,1005.51,VALID,0,VALID,91.188,VALID,0.100563,VALID,24.6769,VALID,352,VALID,0.882031,
2009-06-10, 01:44:04,VALID,1005.49,VALID,0,VALID,91.1499,VALID,0,VALID,24.6769,VALID,334,VALID,0.671875,
2009-06-10, 01:45:04,VALID,1005.46,VALID,0,VALID,91.0583,VALID,0,VALID,24.6574,VALID,346,VALID,0.481641,
2009-06-10, 01:46:04,VALID,1005.47,VALID,0,VALID,91.0202,VALID,0,VALID,24.6361,VALID,312,VALID,0.473437,
2009-06-10, 01:47:04,VALID,1005.49,VALID,0,VALID,91.0278,VALID,0,VALID,24.6769,VALID,352,VALID,1.06133,
2009-06-10, 01:48:04,VALID,1005.48,VALID,0,VALID,90.8523,VALID,0,VALID,24.675,VALID,346,VALID,0.336719,
2009-06-10, 01:49:04,VALID,1005.46,VALID,0,VALID,90.7684,VALID,0,VALID,24.675,VALID,280,VALID,0.353906,
2009-06-10, 01:50:04,VALID,1005.46,VALID,0,VALID,90.8142,VALID,0,VALID,24.675,VALID,357,VALID,0.889844,
2009-06-10, 01:51:04,VALID,1005.45,VALID,0,VALID,90.7074,VALID,0,VALID,24.6964,VALID,336,VALID,0.609766,
2009-06-10, 01:52:04,VALID,1005.42,VALID,0,VALID,90.6387,VALID,0,VALID,24.675,VALID,359,VALID,0.700391,
2009-06-10, 01:53:04,VALID,1005.44,VALID,0,VALID,90.715,VALID,0,VALID,24.7159,VALID,351,VALID,1.89023,
2009-06-10, 01:54:04,VALID,1005.42,VALID,0,VALID,90.593,VALID,0,VALID,24.6945,VALID,340,VALID,0.967969,
2009-06-10, 01:55:04,VALID,1005.4,VALID,0,VALID,90.4938,VALID,0,VALID,24.7159,VALID,323,VALID,0.850391,
2009-06-10, 01:56:04,VALID,1005.37,VALID,0,VALID,90.4175,VALID,0,VALID,24.6945,VALID,345,VALID,0.870703,
2009-06-10, 01:57:04,VALID,1005.38,VALID,0,VALID,90.3412,VALID,0,VALID,24.7159,VALID,9,VALID,0.480859,
2009-06-10, 01:58:04,VALID,1005.35,VALID,0,VALID,90.3793,VALID,0,VALID,24.7159,VALID,353,VALID,0.915625,
2009-06-10, 01:59:04,VALID,1005.35,VALID,0,VALID,90.3336,VALID,0,VALID,24.6945,VALID,360,VALID,0.768359,
2009-06-10, 02:00:04,VALID,1005.33,VALID,0,VALID,90.2878,VALID,0,VALID,24.7159,VALID,353,VALID,0.820703,
2009-06-10, 02:01:04,VALID,1005.37,VALID,0,VALID,90.1963,VALID,0,VALID,24.7159,VALID,360,VALID,0.1,
2009-06-10, 02:02:04,VALID,1005.33,VALID,0,VALID,90.2191,VALID,0,VALID,24.6556,VALID,360,VALID,0.300781,
2009-06-10, 02:03:04,VALID,1005.35,VALID,0,VALID,90.3412,VALID,0,VALID,24.6574,VALID,347,VALID,0.657422,
2009-06-10, 02:04:04,VALID,1005.34,VALID,0,VALID,90.2878,VALID,0,VALID,24.6556,VALID,12,VALID,0.168359,
2009-06-10, 02:05:04,VALID,1005.3,VALID,0,VALID,90.3412,VALID,0.100563,VALID,24.6361,VALID,1,VALID,1.00937,
2009-06-10, 02:06:04,VALID,1005.32,VALID,0,VALID,90.3565,VALID,0,VALID,24.6361,VALID,36,VALID,0.440625,
2009-06-10, 02:07:04,VALID,1005.3,VALID,0,VALID,90.3641,VALID,0,VALID,24.6361,VALID,358,VALID,0.2125,
2009-06-10, 02:08:04,VALID,1005.31,VALID,0,VALID,90.387,VALID,0,VALID,24.6166,VALID,256,VALID,0.632813,
2009-06-10, 02:09:04,VALID,1005.31,VALID,0,VALID,90.387,VALID,0,VALID,24.638,VALID,340,VALID,0.609375,
2009-06-10, 02:10:04,VALID,1005.29,VALID,0,VALID,90.3031,VALID,0,VALID,24.5777,VALID,305,VALID,0.0367187,
2009-06-10, 02:11:04,VALID,1005.28,VALID,0,VALID,90.3793,VALID,0,VALID,24.5972,VALID,347,VALID,1.09922,
2009-06-10, 02:12:04,VALID,1005.25,VALID,0,VALID,90.4022,VALID,0.100563,VALID,24.5777,VALID,356,VALID,0.0613281,
2009-06-10, 02:13:04,VALID,1005.23,VALID,0,VALID,90.448,VALID,0.100563,VALID,24.5582,VALID,356,VALID,0.426953,
2009-06-10, 02:14:04,VALID,1005.22,VALID,0,VALID,90.5319,VALID,0.100563,VALID,24.5582,VALID,358,VALID,0.499609,
2009-06-10, 02:15:04,VALID,1005.18,VALID,0,VALID,90.593,VALID,0.100563,VALID,24.5388,VALID,348,VALID,0.605078,
2009-06-10, 02:16:04,VALID,1005.17,VALID,0,VALID,90.6387,VALID,0.100563,VALID,24.5582,VALID,322,VALID,0.225391,
2009-06-10, 02:17:04,VALID,1005.17,VALID,0,VALID,90.6998,VALID,0.100563,VALID,24.5777,VALID,307,VALID,0.773047,
2009-06-10, 02:18:04,VALID,1005.15,VALID,0,VALID,90.6921,VALID,0.100563,VALID,24.5777,VALID,343,VALID,1.2125,
2009-06-10, 02:19:04,VALID,1005.18,VALID,0,VALID,90.5701,VALID,0.100563,VALID,24.5758,VALID,323,VALID,0.487109,
2009-06-10, 02:20:04,VALID,1005.14,VALID,0,VALID,90.4099,VALID,0,VALID,24.6361,VALID,360,VALID,0.301953,
2009-06-10, 02:21:04,VALID,1005.15,VALID,0,VALID,90.3412,VALID,0.100563,VALID,24.6361,VALID,3,VALID,0.823438,
2009-06-10, 02:22:04,VALID,1005.12,VALID,0,VALID,90.3641,VALID,0.100563,VALID,24.6148,VALID,350,VALID,0.527344,
2009-06-10, 02:23:04,VALID,1005.14,VALID,0,VALID,90.3641,VALID,0,VALID,24.6556,VALID,344,VALID,0.650391,
2009-06-10, 02:24:04,VALID,1005.12,VALID,0,VALID,90.3107,VALID,0.100563,VALID,24.6732,VALID,354,VALID,1.31719,
2009-06-10, 02:25:04,VALID,1005.1,VALID,0,VALID,90.1657,VALID,0.100563,VALID,24.714,VALID,357,VALID,0.213281,
2009-06-10, 02:26:04,VALID,1005.09,VALID,0,VALID,90.0589,VALID,0.100563,VALID,24.714,VALID,339,VALID,0.232031,
2009-06-10, 02:27:04,VALID,1005.11,VALID,0,VALID,89.9292,VALID,0,VALID,24.6964,VALID,353,VALID,0.253906,
2009-06-10, 02:28:04,VALID,1005.07,VALID,0,VALID,90.0742,VALID,0,VALID,24.6769,VALID,339,VALID,0.713281,
2009-06-10, 02:29:04,VALID,1005.06,VALID,0,VALID,90.0894,VALID,0,VALID,24.6574,VALID,323,VALID,0.418359,
2009-06-10, 02:30:04,VALID,1005.05,VALID,0,VALID,90.12,VALID,0,VALID,24.6788,VALID,355,VALID,0.657812,
2009-06-10, 02:31:04,VALID,1005.04,VALID,0,VALID,90.1581,VALID,0,VALID,24.638,VALID,351,VALID,0.848437,
2009-06-10, 02:32:04,VALID,1005.01,VALID,0,VALID,90.242,VALID,0,VALID,24.638,VALID,337,VALID,0.620703,
2009-06-10, 02:33:04,VALID,1005.04,VALID,0,VALID,90.1581,VALID,0,VALID,24.6574,VALID,344,VALID,0.698047,
2009-06-10, 02:34:04,VALID,1005.07,VALID,0,VALID,90.1429,VALID,0,VALID,24.6574,VALID,360,VALID,0.955859,
2009-06-10, 02:35:04,VALID,1005.04,VALID,0,VALID,90.0208,VALID,0,VALID,24.6574,VALID,353,VALID,0.490625,
2009-06-10, 02:36:04,VALID,1005.04,VALID,0,VALID,90.0818,VALID,0,VALID,24.638,VALID,354,VALID,0.452734,
2009-06-10, 02:37:04,VALID,1005.04,VALID,0,VALID,90.1047,VALID,0,VALID,24.6574,VALID,354,VALID,0.967188,
2009-06-10, 02:38:04,VALID,1005.04,VALID,0,VALID,90.0208,VALID,0,VALID,24.6964,VALID,347,VALID,0.857422,
2009-06-10, 02:39:04,VALID,1005.02,VALID,0,VALID,89.9369,VALID,0,VALID,24.6945,VALID,350,VALID,0.7875,
2009-06-10, 02:40:04,VALID,1005.04,VALID,0,VALID,89.8148,VALID,0,VALID,24.7353,VALID,351,VALID,0.683203,
2009-06-10, 02:41:04,VALID,1005.04,VALID,0,VALID,89.6699,VALID,0,VALID,24.7743,VALID,342,VALID,0.725391,
2009-06-10, 02:42:04,VALID,1005.03,VALID,0,VALID,89.5478,VALID,0,VALID,24.7937,VALID,351,VALID,1.37773,
2009-06-10, 02:43:04,VALID,1005.03,VALID,0,VALID,89.3113,VALID,0.100563,VALID,24.8308,VALID,345,VALID,0.852734,
2009-06-10, 02:44:04,VALID,1005.03,VALID,0,VALID,89.1282,VALID,0.100563,VALID,24.8503,VALID,345,VALID,0.952344,
2009-06-10, 02:45:04,VALID,1005.04,VALID,0,VALID,88.9985,VALID,0,VALID,24.8697,VALID,309,VALID,0.363281,
2009-06-10, 02:46:04,VALID,1005.03,VALID,0,VALID,89.0138,VALID,0.100563,VALID,24.8697,VALID,357,VALID,0.834766,
2009-06-10, 02:47:04,VALID,1005.07,VALID,0,VALID,88.9909,VALID,0.100563,VALID,24.8289,VALID,335,VALID,0.709766,
2009-06-10, 02:48:04,VALID,1005.06,VALID,0,VALID,88.9909,VALID,0,VALID,24.8503,VALID,337,VALID,1.1332,
2009-06-10, 02:49:04,VALID,1005.08,VALID,0,VALID,88.9985,VALID,0.100563,VALID,24.8697,VALID,344,VALID,0.914844,
2009-06-10, 02:50:04,VALID,1005.08,VALID,0,VALID,88.9222,VALID,0,VALID,24.8697,VALID,342,VALID,0.969141,
2009-06-10, 02:51:04,VALID,1005.11,VALID,0,VALID,88.8459,VALID,0,VALID,24.8892,VALID,354,VALID,0.385938,
2009-06-10, 02:52:04,VALID,1005.12,VALID,0,VALID,88.8612,VALID,0.100563,VALID,24.8892,VALID,327,VALID,0.985156,
2009-06-10, 02:53:04,VALID,1005.12,VALID,0,VALID,88.8154,VALID,0.100563,VALID,24.9087,VALID,355,VALID,1.58281,
2009-06-10, 02:54:04,VALID,1005.13,VALID,0,VALID,88.6628,VALID,0.100563,VALID,24.9263,VALID,349,VALID,1.31641,
2009-06-10, 02:55:04,VALID,1005.15,VALID,0,VALID,88.4187,VALID,0.100563,VALID,24.9866,VALID,341,VALID,1.01367,
2009-06-10, 02:56:04,VALID,1005.18,VALID,0,VALID,88.1975,VALID,0.100563,VALID,25.0041,VALID,352,VALID,0.901563,
2009-06-10, 02:57:04,VALID,1005.16,VALID,0,VALID,88.1212,VALID,0.100563,VALID,25.0255,VALID,354,VALID,1.09727,
2009-06-10, 02:58:04,VALID,1005.2,VALID,0,VALID,88.1059,VALID,0.100563,VALID,25.0255,VALID,358,VALID,1.03984,
2009-06-10, 02:59:04,VALID,1005.19,VALID,0,VALID,88.1059,VALID,0.100563,VALID,25.0255,VALID,339,VALID,0.738281,
2009-06-10, 03:00:04,VALID,1005.16,VALID,0,VALID,88.1136,VALID,0,VALID,25.045,VALID,351,VALID,0.864453,
2009-06-10, 03:01:04,VALID,1005.18,VALID,0,VALID,88.1136,VALID,0.100563,VALID,25.0255,VALID,352,VALID,1.33242,
2009-06-10, 03:02:04,VALID,1005.18,VALID,0,VALID,88.0983,VALID,0,VALID,25.0255,VALID,357,VALID,0.8125,
2009-06-10, 03:03:04,VALID,1005.18,VALID,0,VALID,88.0449,VALID,0.100563,VALID,25.0644,VALID,353,VALID,1.05273,
2009-06-10, 03:04:04,VALID,1005.16,VALID,0,VALID,87.9839,VALID,0.100563,VALID,25.045,VALID,343,VALID,0.832031,
2009-06-10, 03:05:04,VALID,1005.13,VALID,0,VALID,87.9839,VALID,0.100563,VALID,25.0236,VALID,352,VALID,0.783594,
2009-06-10, 03:06:04,VALID,1005.13,VALID,0,VALID,87.9457,VALID,0.100563,VALID,25.0236,VALID,354,VALID,0.796875,
2009-06-10, 03:07:04,VALID,1005.13,VALID,0,VALID,87.9381,VALID,0.100563,VALID,25.0644,VALID,347,VALID,1.17695,
2009-06-10, 03:08:04,VALID,1005.13,VALID,0,VALID,87.8923,VALID,0.100563,VALID,25.0644,VALID,356,VALID,1.01719,
2009-06-10, 03:09:04,VALID,1005.15,VALID,0,VALID,87.8771,VALID,0.100563,VALID,25.0644,VALID,341,VALID,0.762891,
2009-06-10, 03:10:04,VALID,1005.16,VALID,0,VALID,87.8847,VALID,0.100563,VALID,25.0644,VALID,343,VALID,0.648047,
2009-06-10, 03:11:04,VALID,1005.16,VALID,0,VALID,87.8771,VALID,0.100563,VALID,25.0644,VALID,360,VALID,0.664453,
2009-06-10, 03:12:04,VALID,1005.17,VALID,0,VALID,87.9457,VALID,0,VALID,25.0255,VALID,348,VALID,0.765625,
2009-06-10, 03:13:04,VALID,1005.14,VALID,0,VALID,87.9228,VALID,0,VALID,25.0469,VALID,355,VALID,0.566016,
2009-06-10, 03:14:04,VALID,1005.14,VALID,0,VALID,87.9076,VALID,0,VALID,25.0469,VALID,317,VALID,0.566016,
2009-06-10, 03:15:04,VALID,1005.14,VALID,0,VALID,87.9076,VALID,0,VALID,25.0274,VALID,349,VALID,0.398047,
2009-06-10, 03:16:04,VALID,1005.14,VALID,0,VALID,87.9915,VALID,0,VALID,25.0274,VALID,348,VALID,0.607031,
2009-06-10, 03:17:04,VALID,1005.11,VALID,0,VALID,87.9839,VALID,0,VALID,25.0274,VALID,344,VALID,0.706641,
2009-06-10, 03:18:04,VALID,1005.1,VALID,0,VALID,87.9839,VALID,0,VALID,25.0079,VALID,348,VALID,0.133203,
2009-06-10, 03:19:04,VALID,1005.1,VALID,0,VALID,88.0602,VALID,0,VALID,25.0079,VALID,357,VALID,0.867188,
2009-06-10, 03:20:04,VALID,1005.07,VALID,0,VALID,88.0449,VALID,0,VALID,25.0098,VALID,348,VALID,0.644922,
2009-06-10, 03:21:04,VALID,1005.09,VALID,0,VALID,87.9991,VALID,0,VALID,24.9671,VALID,348,VALID,0.442969,
2009-06-10, 03:22:04,VALID,1005.05,VALID,0,VALID,88.0525,VALID,0,VALID,24.9671,VALID,2,VALID,0.824219,
2009-06-10, 03:23:04,VALID,1005.08,VALID,0,VALID,88.1593,VALID,0,VALID,24.9282,VALID,350,VALID,0.761328,
2009-06-10, 03:24:04,VALID,1005.08,VALID,0,VALID,88.2738,VALID,0,VALID,24.93,VALID,344,VALID,0.986719,
2009-06-10, 03:25:04,VALID,1005.09,VALID,0,VALID,88.2814,VALID,0,VALID,24.9495,VALID,348,VALID,0.721094,
2009-06-10, 03:26:04,VALID,1005.1,VALID,0,VALID,88.289,VALID,0,VALID,24.9106,VALID,315,VALID,0.215234,
2009-06-10, 03:27:04,VALID,1005.11,VALID,0,VALID,88.3119,VALID,0.100563,VALID,24.8892,VALID,284,VALID,0.421484,
2009-06-10, 03:28:04,VALID,1005.12,VALID,0,VALID,88.3348,VALID,0,VALID,24.8892,VALID,336,VALID,0.573438,
2009-06-10, 03:29:04,VALID,1005.14,VALID,0,VALID,88.3195,VALID,0.100563,VALID,24.8892,VALID,329,VALID,0.973828,
2009-06-10, 03:30:04,VALID,1005.12,VALID,0,VALID,88.2356,VALID,0,VALID,24.93,VALID,4,VALID,0.469531,
2009-06-10, 03:31:04,VALID,1005.12,VALID,0,VALID,88.167,VALID,0.100563,VALID,24.9087,VALID,349,VALID,1.01797,
2009-06-10, 03:32:04,VALID,1005.14,VALID,0,VALID,88.1136,VALID,0,VALID,24.8892,VALID,353,VALID,0.670703,
2009-06-10, 03:33:04,VALID,1005.11,VALID,0,VALID,88.0678,VALID,0,VALID,24.9087,VALID,350,VALID,0.716406,
2009-06-10, 03:34:04,VALID,1005.13,VALID,0,VALID,88.1059,VALID,0.100563,VALID,24.9106,VALID,351,VALID,0.953906,
2009-06-10, 03:35:04,VALID,1005.13,VALID,0,VALID,88.0983,VALID,0.100563,VALID,24.8892,VALID,349,VALID,0.830859,
2009-06-10, 03:36:04,VALID,1005.13,VALID,0,VALID,88.0602,VALID,0,VALID,24.8892,VALID,352,VALID,0.673437,
2009-06-10, 03:37:04,VALID,1005.09,VALID,0,VALID,88.0373,VALID,0.100563,VALID,24.9106,VALID,337,VALID,0.642578,
2009-06-10, 03:38:04,VALID,1005.08,VALID,0,VALID,88.0296,VALID,0,VALID,24.8892,VALID,336,VALID,0.323828,
2009-06-10, 03:39:04,VALID,1005.07,VALID,0,VALID,88.0373,VALID,0,VALID,24.8892,VALID,339,VALID,0.675391,
2009-06-10, 03:40:04,VALID,1005.09,VALID,0,VALID,87.9686,VALID,0.100563,VALID,24.9087,VALID,353,VALID,0.232812,